Location: Unspecified
(0.0000°N, 0.0000°E)
Time: 06:34:21
(UTC+00:00)

Hubble Space Telescope - Pass Details

Date: 16 January 2018
Orbit: 537 x 541 km, 28.5° (Epoch: 20 January)

Event Time Altitude Azimuth Distance (km) Brightness Sun altitude
Exits shadow 05:01:24 - 353° (N) 1,872 3.3 -15.9°
Reaches altitude 10° 05:01:51 10° 359° (N) 1,782 3.2 -15.8°
Maximum altitude 05:03:49 13° 27° (NNE) 1,596 3.2 -15.3°
Drops below altitude 10° 05:05:47 10° 56° (NE) 1,784 3.9 -14.9°
Sets 05:09:08 0° 84° (E) 2,676 5.5 -14.1°
